Vertical_Velocity
-2 -1 -2 -1 -10 -7 0 1 0 -1 -1 1 1 1 0 0 0 1 2 1 1 0 -1 -1 -2 -1 1 2 -1 -0 2 4 -0 -1 -1 -0 -2 -1 -2 -1 2 -0 2 3 2 -1 1 -2 0
-3 -2 -1 -2 -8 -2 0 -1 0 0 0 -0 0 -1 -2 1 -1 -1 1 1 0 5 3 1 3 2 4 2 2 2 -1 2 3 1 -2 0 1 -1 -1 -1 -2 -2 -0 -0 0 3 0 0 -2
-3 -2 -5 -4 -1 -2 -2 -1 -1 -0 2 1 -0 1 0 0 1 2 1 -2 -1 0 1 4 0 -1 -1 1 3 0 1 0 3 2 4 0 -1 0 1 0 -0 -1 -3 -3 -1 7 3 -1 3
2 -0 -5 -7 -0 -0 -1 -0 -0 -0 -0 -1 -1 -1 -0 2 2 0 1 1 1 1 2 3 1 -2 -1 -1 -3 -1 -0 3 3 4 3 3 5 1 -1 1 0 -0 1 -0 -4 0 8 1 3
-1 -1 -3 -1 0 -0 -0 1 0 0 0 -0 -0 0 -0 -1 -1 -3 0 -0 1 -0 2 2 -1 -1 3 0 1 -2 1 1 -1 -1 2 1 -0 1 3 2 -0 -0 -1 0 -1 -5 5 2 1
-4 -1 -4 -0 -0 -0 -1 0 -0 -0 0 -0 -0 -0 0 0 1 2 0 -0 -2 0 -0 1 3 2 -1 -3 2 1 4 2 -0 1 4 3 3 2 2 4 2 -0 -0 2 -1 -1 -2 5 1
-7 -3 -1 -0 -0 0 -1 1 -1 -1 -0 -1 -1 -1 -0 -2 -1 -1 -1 -2 -4 0 -1 1 -1 -1 3 6 13 12 18 0 -3 1 -0 0 1 -0 -0 -0 -1 1 3 2 3 6 3 5 7
-2 -7 -0 -0 -1 -0 -1 0 0 1 -1 2 2 -1 -2 -2 1 -2 -1 1 2 0 -1 -3 -3 1 -2 0 -0 4 9 -0 -4 2 -2 -1 -1 0 0 -1 1 2 2 1 3 4 6 1 2
-2 -6 -0 -1 -1 -1 0 -0 1 -0 -1 -1 -1 -1 2 2 -0 2 4 2 1 -1 -1 -0 -1 -2 -1 -1 -1 -1 1 1 -2 2 3 1 -2 -0 2 2 0 2 3 3 5 -4 -9 -7 3
-5 -3 -3 -2 -1 0 0 -0 0 0 -1 -0 0 -0 -0 -1 2 3 3 1 -2 0 0 -0 1 1 -0 1 0 -2 -1 -1 3 2 -1 -0 2 3 0 0 0 -1 1 5 3 3 -3 3 -11
1 -1 -0 1 -1 -0 0 -1 -1 -0 -1 -1 -2 -1 1 2 -0 1 3 2 1 -1 1 1 1 1 2 -0 -1 2 -0 0 0 2 2 2 -3 -0 -1 -2 2 -4 1 6 5 -4 1 -3 2
-6 1 -0 -0 2 0 -1 -0 -1 0 -2 0 3 5 2 1 2 6 4 1 -1 -6 -5 -6 -0 0 1 0 1 -0 3 0 -2 -0 -1 -0 -0 -0 -1 -2 -10 4 -9 -2 9 3 3 2 -4
-2 0 1 1 0 -0 0 -1 -2 -3 -0 -1 -0 0 1 1 2 2 5 4 3 5 3 -1 -1 -4 -4 3 2 1 0 1 1 -1 -3 -2 -1 1 2 -2 -2 1 6 -2 10 21 8 14 3
1 -0 0 1 0 0 1 0 -0 1 1 1 2 3 1 2 2 2 -2 -1 -3 2 -1 1 1 1 -1 -7 -1 -0 -0 1 -1 0 -1 -3 -2 -2 0 2 1 0 -1 6 -1 -9 25 -8 6
-0 -1 -0 -2 -0 -0 1 -1 -0 0 0 2 1 1 2 2 2 -0 -1 1 3 1 3 -0 1 3 1 2 -3 -3 -0 -1 -0 -1 -0 -1 -3 -0 -1 0 -2 -1 1 1 11 3 3 5 -10
-4 -5 -2 -1 -2 -1 -3 -5 1 1 -0 2 1 2 3 2 3 4 1 0 1 -1 -2 -0 -1 1 1 1 0 -0 -3 -2 -1 1 -1 -2 -1 -4 -2 -0 -1 -3 -2 7 9 8 8 4 1
-4 -1 -1 -6 0 -1 -2 -3 2 1 -1 -0 1 3 2 2 3 4 4 4 3 7 1 1 -0 -1 2 1 2 1 -1 -1 -0 0 -1 0 -1 -2 -2 -3 -1 -2 -3 -2 -3 -1 9 6 -5
-1 -1 -2 -0 -3 -3 -1 -2 -2 -1 1 1 1 2 3 4 5 6 5 5 0 -1 2 1 0 -1 -0 1 2 4 3 1 -1 -1 -1 -2 0 2 -1 1 0 -4 -2 -2 4 -1 4 6 4
-1 0 -0 -2 -1 2 -0 -0 0 -1 -2 -1 1 3 3 4 3 2 1 -1 6 0 -0 -1 2 -1 -1 -2 -2 1 -2 -1 -0 1 1 1 -2 0 1 1 0 0 -2 -0 -2 -4 6 7 -2
0 0 -2 -3 -0 1 -1 -2 0 -1 1 2 1 1 1 0 2 2 4 2 -0 2 -1 -3 -1 -3 -0 -0 1 -4 -3 -2 -2 -3 -1 -2 -4 -3 -1 -1 1 2 -1 0 -0 -1 1 1 -0
-0 -0 -0 1 -2 -0 0 -1 -2 0 -1 2 2 3 2 0 1 1 1 0 2 -0 -1 0 2 -2 -3 -1 -0 1 3 6 3 2 1 1 0 0 -1 0 -1 1 1 3 1 -1 -0 3 1
-0 -0 0 0 -2 -1 -1 -5 -1 0 -0 -1 1 1 1 1 2 -1 2 3 -7 -4 -0 -0 -1 -3 -1 -4 -1 -4 -3 -5 -4 -4 -3 1 1 -3 -4 0 -1 2 -0 -1 3 2 -2 3 1
-5 -0 0 -0 -0 -1 -1 -2 -3 -0 -1 -0 -0 1 2 2 1 1 -5 1 -3 1 1 1 -4 -0 1 1 -0 -1 1 2 -0 -1 -5 -3 0 1 1 -1 -1 -1 1 0 -1 1 4 -2 8
-1 -1 -1 -1 -1 -3 -0 -3 -4 -1 -2 -0 0 0 2 2 1 1 5 3 1 -4 -5 -4 3 0 1 0 1 -0 -2 -4 -5 -3 -3 -3 -2 -1 1 -1 -1 -1 1 2 1 0 -0 -1 4
-4 -4 -4 -8 -6 -4 0 -1 -7 -1 -0 -1 -3 -0 1 4 4 2 -0 -6 -2 2 -2 -1 2 2 1 -0 -1 -0 -0 2 3 1 -5 -8 -8 -2 -1 -3 -2 -2 -0 -1 2 3 -0 1 -1
1 -1 -6 -1 -1 -3 -1 -3 -6 -0 1 1 3 2 2 -3 -5 -5 -2 -2 -9 5 2 0 -0 -1 -2 -2 -4 -2 -2 -8 -9 -6 -1 0 -1 -4 -1 -1 -0 -3 -4 -4 -0 0 1 1 0
-0 -4 -1 -2 -0 -1 -3 -6 -1 0 0 1 1 2 -2 1 -1 -5 -0 1 4 -5 -2 0 -4 1 0 -1 -1 0 -1 -1 -3 -4 -2 -5 -1 -0 -1 0 -0 1 -3 -3 2 -2 0 2 1
-1 -3 -5 -3 -3 -3 -3 -1 -4 -0 -1 0 1 -0 2 1 1 -1 -3 1 0 2 -5 0 3 -4 -2 -2 0 -0 -0 -0 2 2 -1 -4 -5 -2 -6 -2 -0 -0 -0 -1 1 -0 1 3 3
-2 -1 -2 -4 -3 -2 0 -8 -1 -0 -0 -1 0 0 1 1 0 -1 0 -0 1 3 -1 -3 -1 -3 -2 -0 -1 -2 -1 -1 0 3 3 3 3 2 -0 -3 -1 2 1 -1 -1 -0 2 1 1
-0 -1 -2 -4 -4 -1 0 -13 0 0 1 -0 0 1 1 -1 0 0 1 -2 -4 -2 -2 -4 -3 -4 -1 -2 -2 0 0 0 -1 -1 -0 1 -1 1 -0 1 0 -0 -1 -2 -2 -3 1 2 2
Height
1519 1520 1521 1522 1531 1537 1554 1554 1550 1549 1547 1546 1546 1546 1547 1549 1549 1553 1550 1549 1548 1547 1547 1546 1546 1546 1546 1546 1546 1546 1547 1547 1548 1548 1548 1548 1548 1549 1549 1549 1549 1548 1548 1548 1548 1548 1549 1550 1551
1520 1521 1522 1522 1538 1548 1557 1552 1551 1549 1548 1548 1547 1548 1549 1550 1550 1550 1549 1548 1547 1546 1546 1546 1546 1546 1546 1546 1546 1546 1546 1547 1547 1547 1548 1548 1548 1549 1549 1549 1548 1548 1548 1548 1549 1549 1549 1549 1551
1521 1521 1523 1532 1550 1553 1556 1549 1547 1546 1545 1545 1547 1547 1548 1549 1550 1549 1549 1547 1547 1546 1545 1545 1545 1545 1545 1546 1546 1545 1546 1546 1546 1547 1547 1547 1547 1548 1548 1548 1548 1548 1548 1548 1549 1549 1549 1549 1550
1520 1522 1527 1538 1549 1550 1548 1547 1547 1548 1548 1548 1548 1549 1550 1549 1549 1549 1547 1546 1546 1545 1544 1544 1544 1544 1543 1544 1545 1545 1545 1545 1545 1546 1546 1546 1546 1547 1547 1548 1547 1548 1548 1547 1548 1549 1549 1549 1550
1522 1523 1537 1549 1551 1549 1548 1548 1547 1547 1548 1548 1547 1548 1549 1549 1549 1549 1548 1547 1545 1544 1543 1543 1543 1543 1543 1543 1543 1543 1543 1543 1544 1544 1544 1544 1545 1545 1545 1545 1546 1546 1547 1548 1547 1548 1549 1549 1550
1523 1527 1544 1551 1552 1549 1548 1547 1547 1548 1548 1548 1548 1548 1550 1549 1550 1549 1548 1547 1546 1544 1543 1541 1541 1541 1541 1542 1540 1540 1541 1540 1541 1543 1543 1542 1542 1542 1543 1544 1544 1545 1546 1547 1546 1547 1548 1550 1550
1524 1534 1549 1552 1551 1549 1547 1547 1547 1546 1546 1546 1547 1548 1549 1549 1549 1549 1549 1548 1547 1545 1543 1542 1541 1539 1539 1539 1538 1536 1534 1538 1539 1541 1541 1541 1540 1540 1540 1541 1542 1543 1544 1544 1545 1546 1548 1550 1550
1526 1534 1551 1553 1551 1551 1547 1546 1547 1548 1548 1547 1546 1546 1547 1546 1547 1548 1548 1547 1546 1543 1542 1542 1541 1540 1539 1537 1536 1537 1537 1536 1536 1538 1538 1538 1538 1538 1538 1539 1540 1540 1541 1542 1543 1545 1547 1548 1550
1528 1541 1553 1551 1550 1548 1547 1547 1548 1548 1548 1549 1549 1548 1548 1548 1548 1548 1547 1546 1545 1544 1543 1542 1541 1540 1539 1538 1536 1536 1535 1535 1536 1536 1536 1535 1534 1535 1535 1536 1537 1538 1539 1539 1541 1542 1542 1544 1547
1529 1543 1545 1544 1546 1548 1548 1549 1549 1550 1549 1547 1547 1546 1546 1547 1549 1550 1550 1549 1547 1546 1544 1544 1542 1541 1539 1538 1536 1535 1535 1534 1534 1532 1532 1531 1531 1532 1532 1533 1534 1535 1536 1537 1538 1539 1539 1537 1541
1535 1543 1545 1548 1548 1548 1549 1549 1549 1549 1548 1547 1546 1545 1546 1547 1549 1550 1551 1550 1550 1548 1546 1545 1543 1542 1540 1538 1537 1535 1533 1532 1531 1530 1528 1528 1527 1527 1527 1529 1530 1530 1533 1532 1533 1535 1536 1537 1538
1540 1544 1545 1545 1545 1547 1547 1547 1547 1546 1545 1546 1546 1547 1548 1549 1550 1551 1550 1548 1547 1548 1547 1546 1544 1543 1541 1539 1537 1535 1533 1531 1530 1528 1527 1526 1525 1524 1523 1524 1525 1523 1526 1529 1528 1529 1531 1533 1535
1540 1544 1544 1546 1546 1545 1545 1545 1545 1544 1544 1544 1545 1546 1548 1550 1551 1551 1552 1552 1551 1550 1547 1546 1545 1544 1542 1541 1538 1536 1533 1531 1529 1527 1526 1525 1524 1522 1521 1522 1521 1520 1521 1524 1524 1524 1524 1523 1529
1544 1544 1545 1546 1545 1545 1545 1544 1545 1544 1542 1542 1543 1545 1546 1548 1550 1550 1550 1550 1551 1551 1549 1547 1545 1544 1542 1541 1540 1537 1534 1532 1529 1527 1525 1524 1522 1521 1520 1519 1519 1520 1520 1519 1517 1517 1517 1518 1523
1544 1545 1546 1548 1547 1546 1545 1545 1544 1542 1541 1540 1542 1543 1543 1544 1545 1548 1550 1551 1550 1549 1549 1549 1547 1544 1542 1540 1538 1537 1535 1532 1530 1527 1525 1523 1521 1519 1517 1516 1515 1515 1516 1517 1516 1517 1519 1517 1515
1548 1550 1554 1549 1547 1546 1545 1546 1543 1544 1543 1541 1540 1540 1541 1543 1545 1546 1548 1549 1550 1550 1550 1549 1548 1546 1543 1540 1538 1536 1534 1532 1530 1527 1524 1522 1520 1518 1516 1514 1513 1512 1513 1513 1513 1514 1515 1516 1515
1558 1558 1560 1554 1549 1549 1547 1546 1545 1545 1543 1542 1542 1543 1544 1545 1547 1548 1547 1547 1549 1548 1548 1547 1546 1546 1543 1540 1538 1535 1533 1531 1529 1526 1523 1521 1519 1517 1515 1513 1511 1510 1510 1511 1512 1512 1511 1511 1511
1565 1564 1563 1560 1554 1552 1551 1549 1548 1547 1545 1544 1543 1543 1545 1547 1547 1549 1551 1552 1548 1550 1549 1547 1545 1544 1543 1540 1537 1535 1532 1530 1527 1524 1521 1519 1516 1514 1512 1510 1508 1508 1508 1508 1508 1508 1508 1509 1510
1563 1565 1566 1559 1555 1553 1549 1552 1550 1546 1545 1542 1542 1545 1547 1548 1552 1552 1552 1552 1552 1548 1549 1547 1544 1542 1540 1537 1534 1532 1530 1528 1526 1523 1520 1517 1514 1512 1509 1507 1505 1504 1504 1504 1504 1504 1504 1505 1506
1561 1562 1561 1556 1556 1558 1549 1550 1550 1550 1551 1548 1547 1548 1550 1552 1553 1553 1550 1549 1550 1548 1544 1545 1543 1541 1539 1536 1533 1530 1529 1526 1523 1521 1518 1515 1513 1510 1507 1503 1501 1500 1500 1500 1500 1500 1501 1501 1502
1562 1561 1560 1563 1559 1558 1557 1551 1554 1555 1555 1554 1552 1551 1552 1554 1555 1555 1555 1552 1548 1547 1545 1544 1543 1540 1539 1536 1533 1530 1527 1523 1519 1517 1515 1512 1509 1507 1504 1501 1499 1496 1495 1494 1495 1495 1497 1497 1498
1560 1559 1562 1565 1565 1562 1564 1552 1555 1557 1558 1558 1557 1556 1555 1555 1555 1556 1558 1554 1550 1549 1547 1544 1542 1539 1537 1535 1532 1528 1524 1520 1517 1514 1512 1509 1506 1503 1501 1498 1494 1492 1490 1490 1490 1491 1492 1493 1492
1563 1560 1562 1563 1566 1569 1562 1561 1549 1558 1559 1558 1557 1555 1555 1556 1555 1553 1553 1555 1553 1551 1547 1544 1542 1539 1536 1533 1528 1525 1521 1518 1514 1511 1508 1505 1502 1500 1497 1493 1490 1488 1486 1486 1485 1485 1486 1488 1487
1559 1561 1564 1569 1570 1564 1564 1563 1548 1555 1555 1555 1558 1559 1558 1556 1554 1553 1552 1552 1553 1550 1547 1545 1541 1537 1533 1530 1526 1522 1517 1513 1509 1506 1502 1499 1496 1494 1492 1489 1486 1484 1481 1479 1479 1479 1479 1482 1482
1563 1562 1568 1567 1569 1556 1566 1567 1546 1553 1553 1552 1553 1556 1558 1559 1558 1555 1552 1553 1550 1549 1545 1542 1539 1533 1529 1525 1522 1518 1514 1510 1504 1500 1496 1493 1490 1488 1485 1483 1481 1478 1476 1473 1472 1471 1472 1473 1475
1570 1570 1585 1578 1578 1572 1570 1561 1543 1552 1551 1550 1553 1555 1557 1556 1554 1556 1553 1548 1549 1549 1544 1539 1536 1530 1525 1521 1516 1512 1508 1504 1500 1496 1491 1487 1484 1481 1479 1477 1474 1472 1470 1469 1467 1465 1465 1466 1468
1569 1575 1575 1577 1590 1591 1564 1554 1553 1552 1552 1552 1553 1554 1554 1552 1552 1550 1551 1548 1543 1543 1542 1536 1531 1526 1521 1515 1509 1504 1500 1496 1492 1488 1485 1480 1477 1474 1471 1469 1467 1465 1464 1463 1461 1459 1458 1458 1459
1569 1575 1577 1582 1582 1570 1564 1564 1546 1550 1549 1551 1552 1552 1551 1550 1550 1547 1547 1546 1542 1536 1535 1532 1525 1520 1514 1508 1503 1497 1491 1488 1484 1479 1476 1473 1470 1467 1464 1462 1460 1457 1456 1455 1454 1453 1452 1452 1451
1574 1576 1580 1581 1584 1582 1578 1555 1550 1551 1551 1551 1553 1553 1552 1551 1549 1547 1543 1541 1538 1532 1526 1523 1518 1512 1507 1502 1496 1490 1485 1480 1476 1471 1468 1464 1461 1458 1456 1455 1453 1450 1448 1447 1446 1446 1445 1443 1444
1572 1573 1576 1582 1583 1587 1583 1551 1550 1551 1551 1551 1551 1551 1550 1548 1545 1543 1540 1537 1533 1527 1521 1516 1511 1506 1500 1495 1489 1483 1478 1473 1468 1464 1460 1456 1453 1450 1448 1446 1444 1442 1440 1439 1438 1437 1436 1435 1436